| time (UTC) | temp F | wind direction | speed MPH | gust MPH | rain 1hr in | rain 24hr in | rain mn in | humidity % | barometer mb |
| 20260507184610 | 66 | 262 | 2.0 | 8.0 | 0.00 | 0.00 | 0.00 | 41 | 1019.4 |
| 20260507181537 | 65 | 266 | 3.0 | 11.0 | 0.00 | 0.00 | 0.00 | 48 | 1019.7 |
| 20260507174642 | 64 | 264 | 4.0 | 11.0 | 0.00 | 0.00 | 0.00 | 51 | 1019.8 |
| 20260507171605 | 62 | 247 | 4.0 | 13.0 | 0.00 | 0.00 | 0.00 | 55 | 1020.0 |
| 20260507170034 | 61 | 258 | 5.0 | 15.0 | 0.00 | 0.00 | 0.00 | 57 | 1020.2 |
| 20260507161539 | 60 | 246 | 3.0 | 10.0 | 0.00 | 0.00 | 0.00 | 62 | 1020.6 |
| 20260507160036 | 60 | 246 | 2.0 | 6.0 | 0.00 | 0.00 | 0.00 | 63 | 1020.8 |
| 20260507151536 | 57 | 251 | 2.0 | 5.0 | 0.00 | 0.00 | 0.00 | 69 | 1021.1 |
| 20260507150038 | 56 | 235 | 3.0 | 9.0 | 0.00 | 0.00 | 0.00 | 71 | 1021.1 |
| 20260507144537 | 55 | 251 | 3.0 | 11.0 | 0.00 | 0.00 | 0.00 | 73 | 1021.1 |
| 20260507143032 | 53 | 235 | 2.0 | 8.0 | 0.00 | 0.00 | 0.00 | 77 | 1021.0 |
| 20260507141532 | 52 | 118 | 1.0 | 5.0 | 0.00 | 0.00 | 0.00 | 81 | 1020.9 |
| 20260507140141 | 51 | 212 | 1.0 | 5.0 | 0.00 | 0.00 | 0.00 | 83 | 1020.7 |
| 20260507134612 | 51 | 238 | 1.0 | 10.0 | 0.00 | 0.00 | 0.00 | 84 | 1020.6 |
| 20260507133032 | 50 | 218 | 1.0 | 7.0 | 0.00 | 0.00 | 0.00 | 83 | 1020.4 |
| 20260507131531 | 51 | 249 | 1.0 | 4.0 | 0.00 | 0.00 | 0.00 | 81 | 1020.3 |
| 20260507130109 | 51 | 23 | 1.0 | 6.0 | 0.00 | 0.00 | 0.00 | 81 | 1020.2 |
| 20260507124643 | 52 | 72 | 2.0 | 6.0 | 0.00 | 0.00 | 0.00 | 79 | 1020.1 |
| 20260507123030 | 53 | 199 | 1.0 | 9.0 | 0.00 | 0.00 | 0.00 | 79 | 1020.1 |
| 20260507120036 | 53 | 278 | 1.0 | 8.0 | 0.00 | 0.00 | 0.00 | 78 | 1020.0 |
| 20260507114609 | 53 | 326 | 2.0 | 12.0 | 0.00 | 0.00 | 0.00 | 78 | 1019.9 |
| 20260507113031 | 54 | 239 | 1.0 | 6.0 | 0.00 | 0.00 | 0.00 | 77 | 1019.8 |
| 20260507111531 | 54 | 313 | 4.0 | 14.0 | 0.00 | 0.00 | 0.00 | 77 | 1019.8 |
| 20260507110030 | 54 | 319 | 3.0 | 16.0 | 0.00 | 0.00 | 0.00 | 78 | 1019.6 |
| 20260507104532 | 54 | 139 | 3.0 | 12.0 | 0.00 | 0.00 | 0.00 | 78 | 1019.4 |
| 20260507103032 | 54 | 229 | 4.0 | 12.0 | 0.00 | 0.00 | 0.00 | 78 | 1019.4 |
| 20260507101531 | 55 | 237 | 3.0 | 11.0 | 0.00 | 0.00 | 0.00 | 78 | 1019.4 |
| 20260507100039 | 55 | 248 | 3.0 | 13.0 | 0.00 | 0.00 | 0.00 | 78 | 1019.3 |
| 20260507094531 | 55 | 236 | 4.0 | 11.0 | 0.00 | 0.00 | 0.00 | 77 | 1019.4 |
| 20260507091530 | 56 | 249 | 4.0 | 10.0 | 0.00 | 0.00 | 0.00 | 76 | 1019.6 |
| 20260507090031 | 56 | 230 | 3.0 | 9.0 | 0.00 | 0.00 | 0.00 | 76 | 1019.6 |
| 20260507084534 | 57 | 245 | 4.0 | 14.0 | 0.00 | 0.00 | 0.00 | 76 | 1019.6 |
| 20260507083109 | 57 | 255 | 4.0 | 12.0 | 0.00 | 0.00 | 0.00 | 76 | 1019.3 |
| 20260507081531 | 57 | 250 | 4.0 | 15.0 | 0.00 | 0.00 | 0.00 | 76 | 1019.2 |
| 20260507074532 | 58 | 241 | 7.0 | 21.0 | 0.00 | 0.00 | 0.00 | 76 | 1018.8 |
| 20260507071607 | 58 | 241 | 6.0 | 17.0 | 0.00 | 0.00 | 0.00 | 76 | 1018.9 |
| 20260507070031 | 58 | 239 | 7.0 | 18.0 | 0.00 | 0.00 | 0.00 | 75 | 1019.1 |
| 20260507064532 | 59 | 244 | 6.0 | 16.0 | 0.00 | 0.00 | 0.00 | 75 | 1019.0 |
| 20260507063107 | 59 | 241 | 7.0 | 18.0 | 0.00 | 0.00 | 0.00 | 74 | 1019.1 |
| 20260507060109 | 59 | 244 | 7.0 | 17.0 | 0.00 | 0.00 | 0.00 | 73 | 1018.9 |
| 20260507054530 | 60 | 240 | 8.0 | 19.0 | 0.00 | 0.00 | 0.00 | 73 | 1018.9 |
| 20260507053034 | 60 | 240 | 9.0 | 22.0 | 0.00 | 0.00 | 0.00 | 73 | 1019.1 |
| 20260507044529 | 61 | 240 | 7.0 | 16.0 | 0.00 | 0.00 | 0.00 | 72 | 1019.8 |
| 20260507041531 | 61 | 254 | 4.0 | 13.0 | 0.00 | 0.00 | 0.00 | 68 | 1020.0 |
| 20260507040045 | 62 | 258 | 3.0 | 12.0 | 0.00 | 0.00 | 0.00 | 64 | 1019.8 |
| 20260507034607 | 63 | 297 | 3.0 | 8.0 | 0.00 | 0.00 | 0.00 | 61 | 1019.7 |
| 20260507033030 | 64 | 304 | 3.0 | 10.0 | 0.00 | 0.00 | 0.00 | 58 | 1019.6 |
| 20260507030037 | 66 | 316 | 6.0 | 14.0 | 0.00 | 0.00 | 0.00 | 54 | 1019.5 |
| 20260507024534 | 66 | 314 | 5.0 | 12.0 | 0.00 | 0.00 | 0.00 | 54 | 1019.5 |
| 20260507021619 | 67 | 285 | 4.0 | 13.0 | 0.00 | 0.00 | 0.00 | 54 | 1019.3 |
| 20260507020035 | 67 | 272 | 3.0 | 13.0 | 0.00 | 0.00 | 0.00 | 54 | 1019.1 |
| 20260507011530 | 67 | 275 | 4.0 | 16.0 | 0.00 | 0.00 | 0.00 | 54 | 1019.1 |
| 20260507010035 | 68 | 259 | 4.0 | 17.0 | 0.00 | 0.00 | 0.00 | 55 | 1019.0 |
| 20260507004535 | 68 | 267 | 4.0 | 13.0 | 0.00 | 0.00 | 0.00 | 54 | 1019.0 |
| 20260507003032 | 69 | 260 | 5.0 | 15.0 | 0.00 | 0.00 | 0.00 | 52 | 1018.9 |
| 20260507001531 | 70 | 267 | 4.0 | 13.0 | 0.00 | 0.00 | 0.00 | 51 | 1018.8 |
| 20260507000033 | 70 | 263 | 5.0 | 15.0 | 0.00 | 0.00 | 0.00 | 50 | 1018.7 |
| 20260506234534 | 71 | 267 | 6.0 | 21.0 | 0.00 | 0.00 | 0.00 | 51 | 1018.6 |
| 20260506233110 | 71 | 280 | 5.0 | 17.0 | 0.00 | 0.00 | 0.00 | 50 | 1018.6 |
| 20260506224531 | 75 | 254 | 8.0 | 16.0 | 0.00 | 0.00 | 0.00 | 45 | 1018.3 |
| 20260506223032 | 75 | 249 | 8.0 | 18.0 | 0.00 | 0.00 | 0.00 | 48 | 1018.1 |
| 20260506221534 | 75 | 250 | 7.0 | 20.0 | 0.00 | 0.00 | 0.00 | 48 | 1018.2 |
| 20260506220111 | 74 | 243 | 7.0 | 23.0 | 0.00 | 0.00 | 0.00 | 48 | 1018.6 |
| 20260506213041 | 74 | 247 | 7.0 | 21.0 | 0.00 | 0.00 | 0.00 | 47 | 1018.7 |
| 20260506211608 | 74 | 253 | 5.0 | 19.0 | 0.00 | 0.00 | 0.00 | 48 | 1018.7 |
| 20260506210035 | 73 | 243 | 5.0 | 11.0 | 0.00 | 0.00 | 0.00 | 50 | 1018.8 |
| 20260506204530 | 72 | 244 | 5.0 | 15.0 | 0.00 | 0.00 | 0.00 | 53 | 1019.3 |
| 20260506203030 | 71 | 253 | 6.0 | 17.0 | 0.00 | 0.00 | 0.00 | 52 | 1019.5 |
| 20260506201610 | 72 | 258 | 5.0 | 16.0 | 0.00 | 0.00 | 0.00 | 51 | 1019.5 |
| 20260506200033 | 73 | 255 | 5.0 | 12.0 | 0.00 | 0.00 | 0.00 | 52 | 1019.4 |
| 20260506194532 | 72 | 258 | 4.0 | 11.0 | 0.00 | 0.00 | 0.00 | 55 | 1019.3 |
| 20260506193029 | 70 | 250 | 7.0 | 18.0 | 0.00 | 0.00 | 0.00 | 56 | 1019.2 |
| 20260506191531 | 69 | 251 | 8.0 | 21.0 | 0.00 | 0.00 | 0.00 | 56 | 1019.0 |
| 20260506190037 | 68 | 252 | 10.0 | 23.0 | 0.00 | 0.00 | 0.00 | 57 | 1018.8 |